Henderson, KY

11:17 AM CDT on August 23, 2019 (GMT -0500)
Henderson City-County

Weather History for KEHR - June, 2019

Change the Weather History Date:

Thursday, June 13, 2019

  Actual Average Record
Temperature  
Mean Temperature 63 °F -  
Max Temperature 72 °F 85 °F 96 °F (1953)
Min Temperature 54 °F 63 °F 48 °F (1985)
Degree Days  
Heating Degree Days 2    
Growing Degree Days 13 (Base 50)    
Moisture  
Dew Point 51 °F    
Average Humidity 68    
Maximum Humidity 93    
Minimum Humidity 38    
Precipitation  
Precipitation 0.00 in - - ()
Sea Level Pressure  
Sea Level Pressure 29.98 in    
Wind  
Wind Speed 11 mph (WNW)    
Max Wind Speed 18 mph    
Max Gust Speed 28 mph    
Visibility 10 miles    
Events      
Averages and records for this station are not official NWS values.
T = Trace of Precipitation, MM = Missing Value Source: NWS Daily Summary

Daily Weather History Graph

Daily Weather History Graph

Search for Another Location

Airport or City:

Astronomy

Jun. 13, 2019 Rise Set
Actual Time 5:28 AM CDT 8:13 PM CDT
Civil Twilight 4:56 AM CDT 8:44 PM CDT
Nautical Twilight 4:17 AM CDT 9:24 PM CDT
Astronomical Twilight 3:33 AM CDT 10:08 PM CDT
Moon 4:32 PM CDT (6/13) 3:08 AM CDT (6/13)
Length of Visible Light 15h 47m
Length of Day
14h 45m
Waxing Gibbous, 85% of the Moon is Illuminated
Jun 13
Waxing Gibbous
Jun 17
Full
Jun 25
Last Quarter
Jul 2
New
Jul 9
First Quarter

Hourly Weather History & Observations

Time (CDT) Temp. Dew Point Humidity Pressure Visibility Wind Dir Wind Speed Gust Speed Precip Events Conditions
12:56 AM 60.1 °F 57.9 °F 93% 29.85 in 10.0 mi WSW 6.9 mph - N/A   Partly Cloudy
1:41 AM 60.8 °F 57.2 °F 88% 29.85 in 10.0 mi West 11.5 mph - N/A   Mostly Cloudy
1:51 AM 60.8 °F 57.2 °F 88% 29.85 in 10.0 mi West 11.5 mph - N/A   Scattered Clouds
1:56 AM 61.0 °F 57.0 °F 87% 29.85 in 10.0 mi West 11.5 mph - N/A   Partly Cloudy
2:56 AM 60.1 °F 57.0 °F 90% 29.85 in 10.0 mi West 12.7 mph - N/A   Scattered Clouds
3:56 AM 60.1 °F 54.0 °F 80% 29.86 in 10.0 mi WNW 12.7 mph - N/A   Scattered Clouds
4:56 AM 57.9 °F 54.0 °F 87% 29.89 in 10.0 mi WNW 11.5 mph - N/A   Clear
5:56 AM 57.0 °F 54.0 °F 89% 29.92 in 10.0 mi West 6.9 mph - N/A   Clear
6:56 AM 59.0 °F 55.0 °F 87% 29.94 in 10.0 mi West 6.9 mph - N/A   Clear
7:34 AM 60.8 °F 55.4 °F 82% 29.96 in 10.0 mi West 12.7 mph 17.3 mph N/A   Mostly Cloudy
7:53 AM 60.8 °F 55.4 °F 82% 29.97 in 10.0 mi NW 9.2 mph - N/A   Overcast
7:56 AM 60.1 °F 55.0 °F 83% 29.97 in 10.0 mi NW 11.5 mph - N/A   Overcast
8:56 AM 63.0 °F 55.9 °F 78% 29.98 in 10.0 mi West 15.0 mph - N/A   Mostly Cloudy
9:38 AM 64.4 °F 53.6 °F 68% 29.99 in 10.0 mi WNW 15.0 mph - N/A   Scattered Clouds
9:56 AM 64.9 °F 52.0 °F 63% 30.00 in 10.0 mi NW 16.1 mph 20.7 mph N/A   Partly Cloudy
10:05 AM 66.2 °F 51.8 °F 60% 30.00 in 10.0 mi WNW 13.8 mph 20.7 mph N/A   Partly Cloudy
10:56 AM 66.9 °F 50.0 °F 54% 30.01 in 10.0 mi NW 11.5 mph 20.7 mph N/A   Scattered Clouds
11:56 AM 68.0 °F 48.0 °F 49% 30.02 in 10.0 mi WNW 18.4 mph 21.9 mph N/A   Scattered Clouds
12:56 PM 71.1 °F 46.0 °F 41% 30.02 in 10.0 mi West 18.4 mph 27.6 mph N/A   Scattered Clouds
1:56 PM 71.1 °F 46.0 °F 41% 30.03 in 10.0 mi WNW 17.3 mph 27.6 mph N/A   Partly Cloudy
2:56 PM 72.0 °F 46.0 °F 40% 30.03 in 10.0 mi WNW 17.3 mph 24.2 mph N/A   Mostly Cloudy
3:56 PM 72.0 °F 45.0 °F 38% 30.03 in 10.0 mi WNW 13.8 mph 25.3 mph N/A   Scattered Clouds
4:56 PM 71.1 °F 45.0 °F 39% 30.04 in 10.0 mi WNW 17.3 mph 23.0 mph N/A   Partly Cloudy
5:56 PM 71.1 °F 44.1 °F 38% 30.04 in 10.0 mi NW 11.5 mph - N/A   Clear
6:56 PM 71.1 °F 44.1 °F 38% 30.05 in 10.0 mi NNW 6.9 mph - N/A   Clear
7:56 PM 69.1 °F 44.1 °F 40% 30.06 in 10.0 mi NNW 4.6 mph - N/A   Clear
8:56 PM 62.1 °F 48.9 °F 62% 30.08 in 10.0 mi West 3.5 mph - N/A   Clear
9:56 PM 57.9 °F 50.0 °F 75% 30.10 in 10.0 mi Calm Calm - N/A   Clear
10:56 PM 54.0 °F 51.1 °F 90% 30.11 in 10.0 mi Calm Calm - N/A   Clear
11:56 PM 55.0 °F 48.9 °F 80% 30.12 in 10.0 mi Variable 3.5 mph - N/A   Clear